Weather History for K40J - July, 2014

Change the Weather History Date:

Tuesday, July 8, 2014

  Actual Average (KCTY) Record (KCTY)
Temperature  
Mean Temperature 84 °F 81 °F  
Max Temperature 89 °F 91 °F 95 °F (2010)
Min Temperature 78 °F 71 °F 66 °F (2010)
Degree Days  
Heating Degree Days 0 0  
Month to date heating degree days 0  
Since 1 June heating degree days 0  
Since 1 July heating degree days 0  
Cooling Degree Days 18 16  
Month to date cooling degree days 128  
Year to date cooling degree days 1054  
Since 1 June cooling degree days 575  
Growing Degree Days 34 (Base 50)    
Moisture  
Dew Point 66 °F    
Average Humidity 55    
Maximum Humidity 100    
Minimum Humidity 40    
Precipitation  
Precipitation 0.00 in 0.16 in 0.83 in (2008)
Month to date precipitation 1.30  
Year to date precipitation 23.56  
Sea Level Pressure  
Sea Level Pressure 30.10 in    
Wind  
Wind Speed 3 mph (SW)    
Max Wind Speed 12 mph    
Max Gust Speed 18 mph    
Visibility 9 miles    
Events Thunderstorm    
T = Trace of Precipitation, MM = Missing Value Source: NWS Daily Summary

Daily Weather History Graph

Daily Weather History Graph

Search for Another Location

Airport or City:

Trip Planner

Search our weather history database for the weather conditions in past years. The results will help you decide how hot, cold, wet, or windy it might be!

Date:

Astronomy

Jul. 08, 2014 Rise Set
Actual Time 6:39 AM EDT 8:38 PM EDT
Civil Twilight 6:12 AM EDT 9:06 PM EDT
Nautical Twilight 5:39 AM EDT 9:38 PM EDT
Astronomical Twilight 5:04 AM EDT 10:14 PM EDT
Moon 4:52 PM EDT (7/8) 3:02 AM EDT (7/8)
Length of Visible Light 14h 53m
Length of Day
13h 59m
Waxing Gibbous, 81% of the Moon is Illuminated
Jul 8
Waxing Gibbous
Jul 12
Full
Jul 18
Last Quarter
Jul 26
New
Aug 3
First Quarter

Hourly Weather History & Observations

Time (EDT) Temp. Heat Index Dew Point Humidity Pressure Visibility Wind Dir Wind Speed Gust Speed Precip Events Conditions
12:15 AM - - - N/A% 30.10 in 10.0 mi Calm Calm - N/A   Clear
12:35 AM - - - N/A% 30.10 in 10.0 mi Calm Calm - N/A   Clear
1:15 AM - - - N/A% 30.09 in 10.0 mi Calm Calm - N/A   Clear
1:35 AM - - - N/A% 30.09 in 10.0 mi Calm Calm - N/A   Clear
1:55 AM - - - N/A% 30.08 in 10.0 mi Calm Calm - N/A   Clear
2:15 AM - - - N/A% 30.09 in 10.0 mi Calm Calm - N/A   Clear
2:35 AM - - - N/A% 30.08 in 10.0 mi Calm Calm - N/A   Clear
2:55 AM - - - N/A% 30.08 in 10.0 mi Calm Calm - N/A   Clear
3:15 AM - - - N/A% 30.08 in 10.0 mi Calm Calm - N/A   Clear
3:35 AM - - - N/A% 30.08 in 10.0 mi Calm Calm - N/A   Clear
3:55 AM - - - N/A% 30.08 in 10.0 mi Calm Calm - N/A   Clear
4:15 AM - - - N/A% 30.08 in 10.0 mi Calm Calm - N/A   Clear
4:35 AM - - - N/A% 30.07 in 7.0 mi Calm Calm - N/A   Clear
4:55 AM - - - N/A% 30.07 in 7.0 mi Calm Calm - N/A   Clear
5:15 AM - - - N/A% 30.07 in 4.0 mi Calm Calm - N/A   Haze
5:35 AM - - - N/A% 30.08 in 7.0 mi Calm Calm - N/A   Clear
5:55 AM - - - N/A% 30.08 in 7.0 mi Calm Calm - N/A   Clear
6:15 AM - - - N/A% 30.08 in 7.0 mi Calm Calm - N/A   Clear
6:35 AM - - - N/A% 30.08 in 5.0 mi Calm Calm - N/A   Haze
6:55 AM - - - N/A% 30.09 in 5.0 mi Calm Calm - N/A   Haze
7:15 AM - - - N/A% 30.10 in 4.0 mi Calm Calm - N/A   Haze
7:35 AM - - - N/A% 30.11 in 5.0 mi Calm Calm - N/A   Haze
7:55 AM - - - N/A% 30.13 in 5.0 mi Calm Calm - N/A   Haze
8:15 AM - - - N/A% 30.13 in 7.0 mi Calm Calm - N/A   Mostly Cloudy
8:35 AM - - - N/A% 30.14 in 10.0 mi Calm Calm - N/A   Scattered Clouds
8:55 AM 78.8 °F - 78.8 °F 100% 30.15 in 10.0 mi NW 5.8 mph - N/A   Scattered Clouds
9:15 AM 78.8 °F - 78.8 °F 100% 30.16 in 10.0 mi NW 5.8 mph - N/A   Mostly Cloudy
9:35 AM 82.4 °F 85.4 °F 68.0 °F 62% 30.16 in 10.0 mi NW 8.1 mph - N/A   Scattered Clouds
9:55 AM 82.4 °F 85.4 °F 68.0 °F 62% 30.16 in 10.0 mi NW 6.9 mph - N/A   Mostly Cloudy
10:35 AM 82.4 °F 85.4 °F 68.0 °F 62% 30.15 in 10.0 mi NNW 8.1 mph - N/A   Mostly Cloudy
10:55 AM 84.2 °F 87.3 °F 68.0 °F 58% 30.16 in 10.0 mi NW 5.8 mph - N/A   Scattered Clouds
11:15 AM 84.2 °F 87.3 °F 68.0 °F 58% 30.16 in 10.0 mi NNW 4.6 mph - N/A   Mostly Cloudy
11:35 AM 84.2 °F 85.6 °F 64.4 °F 51% 30.15 in 10.0 mi Calm Calm - N/A Thunderstorm Mostly Cloudy
11:55 AM 86.0 °F 87.3 °F 64.4 °F 48% 30.15 in 10.0 mi NW 5.8 mph - N/A Thunderstorm Scattered Clouds
12:15 PM 86.0 °F 87.3 °F 64.4 °F 48% 30.14 in 10.0 mi NW 3.5 mph - N/A Thunderstorm Scattered Clouds
12:35 PM 87.8 °F 88.5 °F 62.6 °F 43% 30.13 in 10.0 mi West 6.9 mph - N/A   Clear
12:55 PM 87.8 °F 88.5 °F 62.6 °F 43% 30.13 in 10.0 mi WSW 5.8 mph - N/A   Scattered Clouds
1:15 PM 87.8 °F 88.5 °F 62.6 °F 43% 30.12 in 10.0 mi WSW 3.5 mph - N/A   Scattered Clouds
1:35 PM 87.8 °F 88.5 °F 62.6 °F 43% 30.12 in 10.0 mi SSW 3.5 mph - N/A   Scattered Clouds
1:55 PM 89.6 °F 91.1 °F 64.4 °F 43% 30.10 in 10.0 mi WNW 5.8 mph - N/A   Scattered Clouds
2:15 PM 89.6 °F 91.1 °F 64.4 °F 43% 30.10 in 10.0 mi SW 4.6 mph - N/A   Scattered Clouds
2:35 PM 89.6 °F 90.1 °F 62.6 °F 40% 30.10 in 10.0 mi SW 10.4 mph - N/A   Scattered Clouds
2:55 PM 87.8 °F 89.4 °F 64.4 °F 46% 30.10 in 10.0 mi SW 10.4 mph - N/A   Clear
3:15 PM 87.8 °F 89.4 °F 64.4 °F 46% 30.10 in 10.0 mi SW 9.2 mph - N/A   Clear
3:35 PM 89.6 °F 90.1 °F 62.6 °F 40% 30.10 in 10.0 mi SSW 8.1 mph - N/A   Clear
3:55 PM 89.6 °F 90.1 °F 62.6 °F 40% 30.09 in 10.0 mi SW 9.2 mph - N/A   Clear
4:15 PM 89.6 °F 90.1 °F 62.6 °F 40% 30.08 in 10.0 mi SW 11.5 mph 17.3 mph N/A   Clear
4:35 PM 89.6 °F 90.1 °F 62.6 °F 40% 30.08 in 10.0 mi SSW 11.5 mph - N/A   Clear
4:55 PM 89.6 °F 90.1 °F 62.6 °F 40% 30.07 in 10.0 mi WSW 10.4 mph 18.4 mph N/A   Clear
5:15 PM 89.6 °F 90.1 °F 62.6 °F 40% 30.07 in 10.0 mi WSW 11.5 mph - N/A   Clear
5:35 PM 87.8 °F 89.4 °F 64.4 °F 46% 30.06 in 10.0 mi SW 11.5 mph - N/A   Clear
5:55 PM 87.8 °F 89.4 °F 64.4 °F 46% 30.06 in 10.0 mi SSW 9.2 mph - N/A   Clear
6:15 PM 87.8 °F 89.4 °F 64.4 °F 46% 30.06 in 10.0 mi SW 10.4 mph - N/A   Clear
6:35 PM 86.0 °F 88.2 °F 66.2 °F 51% 30.05 in 10.0 mi WSW 9.2 mph - N/A   Clear
6:55 PM 86.0 °F 88.2 °F 66.2 °F 51% 30.05 in 10.0 mi WSW 9.2 mph - N/A   Clear
7:15 PM 86.0 °F 88.2 °F 66.2 °F 51% 30.05 in 10.0 mi SW 10.4 mph - N/A   Clear
7:35 PM 84.2 °F 87.3 °F 68.0 °F 58% 30.07 in 10.0 mi SW 10.4 mph - N/A   Clear
7:55 PM 82.4 °F 86.3 °F 69.8 °F 66% 30.08 in 10.0 mi SW 6.9 mph - N/A   Clear
8:15 PM 82.4 °F 86.3 °F 69.8 °F 66% 30.08 in 10.0 mi SW 6.9 mph - N/A   Clear
8:35 PM 80.6 °F 83.9 °F 69.8 °F 70% 30.09 in 10.0 mi SSW 4.6 mph - N/A   Clear
8:55 PM 78.8 °F - 69.8 °F 74% 30.09 in 10.0 mi South 3.5 mph - N/A   Clear
9:15 PM 78.8 °F - 71.6 °F 78% 30.10 in 10.0 mi South 3.5 mph - N/A   Clear
9:35 PM 78.8 °F - 77.0 °F 94% 30.11 in 10.0 mi SSE 3.5 mph - N/A   Clear
9:55 PM - - - N/A% 30.12 in 10.0 mi SSE 3.5 mph - N/A   Clear
10:15 PM - - - N/A% 30.12 in 10.0 mi South 3.5 mph - N/A   Clear
10:35 PM - - - N/A% 30.13 in 10.0 mi Calm Calm - N/A   Clear
10:55 PM - - - N/A% 30.12 in 10.0 mi South 3.5 mph - N/A   Clear
11:15 PM - - - N/A% 30.11 in 10.0 mi South 4.6 mph - N/A   Clear
11:35 PM - - - N/A% 30.11 in 10.0 mi SSE 3.5 mph - N/A   Clear
11:55 PM - - - N/A% 30.10 in 10.0 mi SSE 3.5 mph - N/A   Clear